Weather History for KBVS - November, 2012

Change the Weather History Date:

Tuesday, November 20, 2012

  Actual Average Record
Temperature  
Mean Temperature 48 °F -  
Max Temperature 51 °F 50 °F 62 °F (1966)
Min Temperature 46 °F 37 °F 20 °F (1985)
Degree Days  
Heating Degree Days 16    
Moisture  
Dew Point 46 °F    
Average Humidity 89    
Maximum Humidity 100    
Minimum Humidity 82    
Precipitation  
Precipitation 0.02 in - - ()
Sea Level Pressure  
Sea Level Pressure 29.60 in    
Wind  
Wind Speed 10 mph (SE)    
Max Wind Speed 21 mph    
Max Gust Speed 29 mph    
Visibility 10 miles    
Events      
Averages and records for this station are not official NWS values.
T = Trace of Precipitation, MM = Missing Value Source: NWS Daily Summary

Daily Weather History Graph

Daily Weather History Graph

Search for Another Location

Airport or City:

Trip Planner

Search our weather history database for the weather conditions in past years. The results will help you decide how hot, cold, wet, or windy it might be!

Date:

Astronomy

Nov. 20, 2012 Rise Set
Actual Time 7:25 AM PST 4:24 PM PST
Civil Twilight 6:51 AM PST 4:59 PM PST
Nautical Twilight 6:12 AM PST 5:37 PM PST
Astronomical Twilight 5:35 AM PST 6:15 PM PST
Moon 12:45 PM PST (11/20) No Moon Set
Length of Visible Light 10h 08m
Length of Day
8h 58m
First Quarter, 52% of the Moon is Illuminated
Nov 20
First Quarter
Nov 28
Full
Dec 6
Last Quarter
Dec 13
New
Dec 19
First Quarter

Hourly Weather History & Observations

Time (PST) Temp. Windchill Dew Point Humidity Pressure Visibility Wind Dir Wind Speed Gust Speed Precip Events Conditions
12:15 AM 51.8 °F - 48.2 °F 88% 29.67 in 10.0 mi SSE 9.2 mph - 0.00 in   Overcast
12:35 AM 51.8 °F - 48.2 °F 88% 29.67 in 10.0 mi SSE 9.2 mph - 0.00 in   Overcast
4:15 AM 50.0 °F - 46.4 °F 87% 29.67 in 10.0 mi SSE 4.6 mph - 0.00 in   Mostly Cloudy
4:35 AM 51.8 °F - 48.2 °F 88% 29.66 in 10.0 mi SE 8.1 mph - 0.00 in   Overcast
4:55 AM 51.8 °F - 48.2 °F 88% 29.66 in 10.0 mi SE 6.9 mph - 0.00 in   Mostly Cloudy
5:15 AM 51.8 °F - 48.2 °F 88% 29.65 in 10.0 mi SE 9.2 mph - 0.00 in   Mostly Cloudy
5:35 AM 51.8 °F - 46.4 °F 82% 29.65 in 10.0 mi ESE 6.9 mph - 0.00 in   Scattered Clouds
5:55 AM 51.8 °F - 46.4 °F 82% 29.66 in 10.0 mi SE 11.5 mph 16.1 mph 0.00 in   Mostly Cloudy
6:15 AM 51.8 °F - 46.4 °F 82% 29.66 in 10.0 mi SE 8.1 mph - 0.00 in   Overcast
6:35 AM 48.2 °F - 46.4 °F 93% 29.64 in 10.0 mi East 9.2 mph - 0.00 in   Mostly Cloudy
6:55 AM 48.2 °F - 46.4 °F 93% 29.63 in 10.0 mi East 9.2 mph - 0.00 in   Scattered Clouds
7:15 AM 48.2 °F - 46.4 °F 93% 29.62 in 10.0 mi East 9.2 mph - 0.00 in   Mostly Cloudy
7:35 AM 48.2 °F - 46.4 °F 93% 29.62 in 10.0 mi ENE 5.8 mph - 0.00 in   Overcast
7:55 AM 48.2 °F - 46.4 °F 93% 29.61 in 9.0 mi East 5.8 mph - 0.00 in   Mostly Cloudy
8:15 AM 48.2 °F - 46.4 °F 93% 29.60 in 9.0 mi East 9.2 mph - 0.00 in   Mostly Cloudy
8:35 AM 48.2 °F - 46.4 °F 93% 29.59 in 10.0 mi ESE 9.2 mph - 0.00 in   Scattered Clouds
8:55 AM 50.0 °F - 46.4 °F 87% 29.57 in 10.0 mi ENE 12.7 mph - 0.00 in   Mostly Cloudy
9:15 AM 48.2 °F - 46.4 °F 93% 29.55 in 10.0 mi East 8.1 mph - 0.00 in   Partly Cloudy
9:35 AM 50.0 °F - 46.4 °F 87% 29.54 in 10.0 mi East 8.1 mph - 0.00 in   Clear
10:55 AM 50.0 °F - 44.6 °F 82% 29.51 in 10.0 mi East 11.5 mph - 0.00 in   Scattered Clouds
11:15 AM 48.2 °F - 44.6 °F 87% 29.51 in 10.0 mi Calm Calm - 0.00 in   Scattered Clouds
12:15 PM 48.2 °F - 48.2 °F 100% 29.51 in 5.0 mi SE 12.7 mph 18.4 mph 0.01 in   Overcast
12:35 PM 50.0 °F - 48.2 °F 94% 29.52 in 7.0 mi SE 11.5 mph 18.4 mph 0.01 in   Overcast
12:55 PM 50.0 °F - 48.2 °F 94% 29.51 in 5.0 mi ESE 11.5 mph 23.0 mph 0.01 in   Overcast
1:15 PM 50.0 °F - 46.4 °F 87% 29.53 in 9.0 mi SE 11.5 mph 19.6 mph 0.00 in   Mostly Cloudy
1:35 PM 50.0 °F - 48.2 °F 94% 29.53 in 10.0 mi SE 10.4 mph 19.6 mph 0.00 in   Overcast
1:55 PM 51.8 °F - 46.4 °F 82% 29.53 in 9.0 mi SSE 15.0 mph 24.2 mph 0.00 in   Overcast
2:15 PM 50.0 °F - 48.2 °F 94% 29.52 in 4.0 mi SE 16.1 mph 26.5 mph 0.01 in   Mostly Cloudy
2:35 PM 51.8 °F - 48.2 °F 88% 29.54 in 10.0 mi South 12.7 mph 25.3 mph 0.01 in   Mostly Cloudy
2:55 PM 51.8 °F - 48.2 °F 88% 29.54 in 10.0 mi SSE 15.0 mph 20.7 mph 0.01 in   Partly Cloudy
3:15 PM 51.8 °F - 48.2 °F 88% 29.56 in 9.0 mi South 15.0 mph - 0.00 in   Scattered Clouds
3:35 PM 51.8 °F - 46.4 °F 82% 29.58 in 10.0 mi South 12.7 mph 23.0 mph 0.00 in   Scattered Clouds
3:55 PM 51.8 °F - 46.4 °F 82% 29.59 in 10.0 mi SSE 12.7 mph 25.3 mph 0.00 in   Partly Cloudy
4:15 PM 50.0 °F - 46.4 °F 87% 29.60 in 10.0 mi SSE 15.0 mph 26.5 mph 0.00 in   Scattered Clouds
4:35 PM 50.0 °F - 46.4 °F 87% 29.61 in 10.0 mi SSE 12.7 mph 23.0 mph 0.00 in   Mostly Cloudy
4:55 PM 50.0 °F - 46.4 °F 87% 29.60 in 10.0 mi SSE 13.8 mph 25.3 mph 0.00 in   Mostly Cloudy
5:15 PM 48.2 °F - 44.6 °F 87% 29.60 in 10.0 mi SSE 13.8 mph 23.0 mph 0.00 in   Mostly Cloudy
5:35 PM 48.2 °F - 44.6 °F 87% 29.60 in 10.0 mi SSE 12.7 mph 18.4 mph 0.00 in   Scattered Clouds
5:55 PM 50.0 °F - 44.6 °F 82% 29.61 in 10.0 mi SSE 15.0 mph 24.2 mph 0.00 in   Partly Cloudy
6:15 PM 50.0 °F - 44.6 °F 82% 29.61 in 10.0 mi SSE 16.1 mph 27.6 mph 0.00 in   Scattered Clouds
6:35 PM 50.0 °F - 44.6 °F 82% 29.62 in 8.0 mi SSE 20.7 mph 28.8 mph 0.00 in   Mostly Cloudy
6:55 PM 48.2 °F - 44.6 °F 87% 29.63 in 10.0 mi South 10.4 mph 19.6 mph 0.00 in   Mostly Cloudy
7:15 PM 48.2 °F - 44.6 °F 87% 29.64 in 10.0 mi SSE 11.5 mph 19.6 mph 0.00 in   Mostly Cloudy
7:35 PM 48.2 °F - 46.4 °F 93% 29.63 in 9.0 mi SSE 8.1 mph - 0.00 in   Overcast
7:55 PM 46.4 °F 41.9 °F 44.6 °F 93% 29.62 in 10.0 mi South 9.2 mph 17.3 mph 0.00 in   Scattered Clouds
8:15 PM 46.4 °F 42.4 °F 44.6 °F 93% 29.63 in 10.0 mi SSE 8.1 mph - 0.00 in   Partly Cloudy
8:35 PM 46.4 °F 42.9 °F 44.6 °F 93% 29.64 in 10.0 mi South 6.9 mph - 0.00 in   Scattered Clouds
8:55 PM 46.4 °F 41.9 °F 44.6 °F 93% 29.64 in 10.0 mi South 9.2 mph - 0.00 in   Partly Cloudy
9:15 PM 46.4 °F 42.9 °F 44.6 °F 93% 29.64 in 10.0 mi SSE 6.9 mph 17.3 mph 0.00 in   Clear
9:35 PM 46.4 °F 41.5 °F 42.8 °F 87% 29.64 in 10.0 mi SSE 10.4 mph 18.4 mph 0.00 in   Clear
9:55 PM 46.4 °F 41.1 °F 42.8 °F 87% 29.64 in 10.0 mi SSE 11.5 mph 19.6 mph 0.00 in   Clear
10:15 PM 46.4 °F 41.9 °F 42.8 °F 87% 29.64 in 10.0 mi SSE 9.2 mph - 0.00 in   Scattered Clouds
10:35 PM 48.2 °F - 44.6 °F 87% 29.64 in 10.0 mi SE 10.4 mph 16.1 mph 0.00 in   Scattered Clouds
11:15 PM 46.4 °F 44.3 °F 44.6 °F 93% 29.62 in 10.0 mi East 4.6 mph - 0.00 in   Mostly Cloudy
11:35 PM 46.4 °F 42.9 °F 44.6 °F 93% 29.62 in 10.0 mi East 6.9 mph - 0.00 in   Overcast
11:55 PM 46.4 °F 42.4 °F 44.6 °F 93% 29.60 in 10.0 mi NE 8.1 mph - 0.00 in   Overcast